Home > Weather > Garoua > Past weeks

Flag for Cameroon Weather for the Past 2 Weeks in Garoua, Cameroon

Now
63 °F

Duststorm.


Feels Like: 63 °F
Forecast: 62 / 96 °F
Wind: 5 mph from Northeast

Location: Ndjamena

Current Time: Feb 12, 2016 at 5:03:00 AM

Latest Report: Feb 12, 2016 at 4:00 AM


Visibility: 2 mi

Pressure: 29.92 "Hg

Humidity: 17%

Dew point: 18 °F

Location of GarouaLocation

Historic Weather in Garoua — Graph

°F

Garoua Temperature Yesterday

Maximum temperature yesterday: 88 °F (at 2:00 PM)
Minimum temperature yesterday: 59 °F (at 6:00 AM)
Average temperature yesterday: 74 °F

High & Low Weather Summary for the Past Weeks

 TemperatureHumidityPressure
High95 °F (Feb 3, 2:00 PM)44% (Feb 8, 7:00 AM)30.15 "Hg (Feb 8, 7:00 AM)
Low52 °F (Jan 31, 7:00 AM)5% (Feb 1, 4:00 PM)29.83 "Hg (Feb 3, 4:00 PM)
Average73 °F17%29.99 "Hg
* Reported Jan 28 3:00 AM — Feb 12 3:00 AM, Garoua, Weather by CustomWeather, © 2016

Note: Actual official high and low records may vary slightly from our data, if they occured in-between our weather recording intervals... More about our weather records

Advertising

Garoua Weather History for the Previous 24 Hours

 ConditionsComfort  
Time TempWeatherWind HumidityBarometerVisibility
3:00 AM
Fri, Feb 12
64 °FDuststorm.3 mph18%29.92 "Hg2 mi
2:00 AM66 °FDuststorm.3 mph15%29.92 "Hg2 mi
1:00 AM68 °FDuststorm.5 mph16%29.95 "Hg2 mi
12:00 AM70 °FDuststorm.No wind13%29.95 "Hg2 mi
11:00 PM
Thu, Feb 11
72 °FDuststorm.2 mph12%29.98 "Hg2 mi
10:00 PM70 °FClear.1 mph13%29.98 "Hg4 mi
9:00 PM73 °FClear.9 mph10%29.95 "Hg4 mi
8:00 PM72 °FClear.7 mph12%29.95 "Hg4 mi
7:00 PM75 °FClear.6 mph10%29.89 "Hg4 mi
6:00 PM82 °FClear.8 mph7%29.89 "Hg4 mi
5:00 PM86 °FClear.10 mph6%29.89 "Hg4 mi
4:00 PM88 °FClear.8 mph6%29.89 "Hg4 mi
3:00 PM88 °FClear.10 mph6%29.86 "Hg4 mi
2:00 PM88 °FClear.12 mph6%29.98 "Hg4 mi
1:00 PM86 °FDuststorm.16 mph7%29.98 "Hg2 mi
12:00 PM82 °FDuststorm.16 mph8%30.01 "Hg2 mi
11:00 AM79 °FDuststorm.14 mph10%30.04 "Hg2 mi
10:00 AM75 °FDuststorm.12 mph11%30.04 "Hg1 mi
9:00 AM70 °FDuststorm.9 mph13%30.04 "Hg1 mi
8:00 AM63 °FDuststorm.9 mph19%30.01 "Hg1 mi
7:00 AM59 °FDuststorm.9 mph23%30.01 "Hg1 mi
6:00 AM59 °FDuststorm.2 mph21%29.98 "Hg1 mi
5:00 AM61 °FDuststorm.2 mph19%29.98 "Hg1 mi
Weather by CustomWeather, © 2016

See weather overviewHow to use our weather pages